Regional Weather Roundup
Issued by NWS

Home | Current Version | Previous Version | Text Only | Print | Product List | Glossary On
Versions: 1 2 3 4 5 6 7 8 9 10 11 12 13 14 15 16 17 18 19 20 21 22 23 24 25 26 27 28 29 30 31 32 33 34 35 36 37 38 39 40 41 42 43 44 45 46 47 48 49 50
000
ASUS46 KSEW 210710
RWRWA

WASHINGTON REGIONAL WEATHER ROUNDUP
NATIONAL WEATHER SERVICE SEATTLE WA
1100 PM PST SAT JAN 20 2018

NOTE:"FAIR" INDICATES FEW OR NO CLOUDS BELOW 12,000 FEET WITH NO
SIGNIFICANT WEATHER AND/OR OBSTRUCTIONS TO VISIBILITY.

WAZ507-509-555>559-210800-
SEATTLE, TACOMA, EVERETT, AND VICINITY

CITY           SKY/WX    TMP DP  RH WIND       PRES   REMARKS
EVERETT        CLOUDY    47  35  63 SE22G32   29.92F
BOEING FIELD   CLOUDY    49  36  61 S20G29    29.94F
RENTON         CLOUDY    50  35  56 SE13      29.94F
SEATAC AIRPORT CLOUDY    48  35  60 S18G25    29.94F
JBLM-MCCHORD   CLOUDY    47  44  91 S16       29.95F
PUYALLUP       CLOUDY    48  36  61 S13G24    29.97R
BREMERTON      CLOUDY    45  40  82 S14G23    29.92F
JBLM-FT LEWIS  CLOUDY    47  43  84 SE23G29   29.94F
TACOMA NARROWS CLOUDY    47  37  68 S14G22    29.94F
$$

WAZ001-503-506-510-514-515-210800-
NORTH INTERIOR

CITY           SKY/WX    TMP DP  RH WIND       PRES   REMARKS
BELLINGHAM     CLOUDY    49  37  63 SE29G48   29.80F
FRIDAY HARBOR  CLOUDY    46  39  76 SE24G45   29.80F
EASTSOUND      CLOUDY    48  39  71 S18G32    29.79F
PORT ANGELES   CLOUDY    42  39  89 CALM      29.76S
EDIZ HOOK      CLOUDY    45  40  82 NE5       29.75S
PORT TOWNSEND  CLOUDY    45  43  93 SE22G32   29.85R
NAS WHIDBEY    CLOUDY    50  38  63 SE33G47   29.87F
ARLINGTON      CLOUDY    49  35  58 SE21G28   29.93F
BURLINGTON     CLOUDY    48  36  61 SE21G33   29.86F
$$

WAZ020-022-039-040-504-511-512-210800-
SOUTHWEST INTERIOR

CITY           SKY/WX    TMP DP  RH WIND       PRES   REMARKS
SHELTON        CLOUDY    46  41  82 S12       29.91F
OLYMPIA        CLOUDY    46  40  79 S21G32    29.95F
CHEHALIS       CLOUDY    48  41  76 S18       29.98S
KELSO          CLOUDY    47  38  71 S14G21    30.03F
VANCOUVER      CLOUDY    45  40  82 E10       30.07F
SCAPPOOSE, OR  CLOUDY    46  38  73 SE10      30.05F
PORTLAND, OR   CLOUDY    45  39  79 E9        30.08S
$$

WAZ021-516-517-210800-
WASHINGTON COAST

CITY           SKY/WX    TMP DP  RH WIND       PRES   REMARKS
FORKS          LGT RAIN  48  46  93 S18G31    29.74F
HOQUIAM        LGT RAIN  47  44  90 SE18G28   29.89F FOG
ASTORIA, OR    CLOUDY    49  41  74 S13       29.93F
$$

WAZ019-023-024-040-567>569-210800-
CASCADE MOUNTAINS AND COLUMBIA GORGE

CITY           SKY/WX    TMP DP  RH WIND       PRES   REMARKS
STAMPEDE PASS  CLOUDY    30  28  92 VRB5      29.92F
TROUTDALE, OR  CLOUDY    45  41  86 E10       30.08F
HOOD RIVER, OR CLOUDY    34  34 100 CALM      30.11S
THE DALLES, OR PTCLDY    32  30  92 CALM      30.12F
$$

WAZ026-027-041>044-520-521-210800-
EAST SLOPES

CITY           SKY/WX    TMP DP  RH WIND       PRES   REMARKS
OMAK           CLOUDY    29  29 100 CALM      30.05S
WENATCHEE      CLOUDY    33  30  88 CALM      30.03S
ELLENSBURG     CLOUDY    31  28  89 CALM      30.02S
YAKIMA         MOCLDY    43  32  65 S15       30.04S
SUNNYSIDE ARPT MOSUNNY   33  30  88 E6        30.09R
YAKIMA TC      FAIR      41  31  66 S16       30.01S
$$

WAZ028-034-035-210800-
COLUMBIA BASIN

CITY           SKY/WX    TMP DP  RH WIND       PRES   REMARKS
EPHRATA        MOCLDY    29  23  78 N6        30.05S
MOSES LAKE     PTCLDY    31  29  92 SE6       30.06S
PASCO          CLEAR     35  30  82 SE6       30.12S
RICHLAND ARPT  SUNNY     38  33  81 SW3       30.12S
HERMISTON, OR  CLEAR     31  27  85 E6        30.11S
$$

WAZ036>038-210800-
NORTHEAST WASHINGTON

CITY           SKY/WX    TMP DP  RH WIND       PRES   REMARKS
SPOKANE GEIGER PTCLDY    31  30  96 SE7       30.09R
SPOKANE FELTS  PTCLDY    32  30  92 N5        30.12R
FAIRCHILD AFB  CLEAR     31  31 100 SE6       30.07S
COEURDALENE,ID PTCLDY    32  30  92 S6        30.11R
DEER PARK      MOCLDY    29  28  96 CALM      30.10S
$$

WAZ029>033-210800-
SOUTHEAST WASHINGTON

CITY           SKY/WX    TMP DP  RH WIND       PRES   REMARKS
PULLMAN        CLOUDY    35  30  82 SE7       30.12S
LEWISTON, ID   CLOUDY    36  33  89 CALM      30.15S
WALLA WALLA    CLEAR     43  30  60 S10       30.11F
PENDLETON, OR  CLEAR     34  27  75 SE9       30.11S
$$



USA.gov is the U.S. government's official web portal to all federal, state and local government web resources and services.